Weather History for Price, UT

Change the Weather History Date:

Thursday, May 15, 2014

  Actual Average Record
Temperature  
Mean Temperature 58 °F -  
Max Temperature 79 °F 69 °F 85 °F (1988)
Min Temperature 39 °F 41 °F 32 °F (1983)
Degree Days  
Heating Degree Days 6    
Growing Degree Days 8 (Base 50)    
Moisture  
Dew Point 18 °F    
Average Humidity 23    
Maximum Humidity 41    
Minimum Humidity 9    
Precipitation  
Precipitation 0.00 in - - ()
Sea Level Pressure  
Sea Level Pressure 30.17 in    
Wind  
Wind Speed 8 mph (NNW)    
Max Wind Speed 17 mph    
Max Gust Speed 24 mph    
Visibility 10 miles    
Events      
Averages and records for this station are not official NWS values.
T = Trace of Precipitation, MM = Missing Value Source: NWS Daily Summary

Daily Weather History Graph

Daily Weather History Graph

Search for Another Location

Airport:

Trip Planner

Search our weather history database for the weather conditions in past years. The results will help you decide how hot, cold, wet, or windy it might be!

Date:

Astronomy

May. 15, 2014 Rise Set
Actual Time 6:08 AM MDT 8:30 PM MDT
Civil Twilight 5:38 AM MDT 9:01 PM MDT
Nautical Twilight 5:00 AM MDT 9:38 PM MDT
Astronomical Twilight 4:19 AM MDT 10:20 PM MDT
Moon 9:42 PM MDT (5/15) 6:58 AM MDT (5/15)
Length of Visible Light 15h 22m
Length of Day
14h 21m
Full, 99% of the Moon is Illuminated
May 15
Full
May 21
Last Quarter
May 28
New
Jun 5
First Quarter
Jun 12
Full

Hourly Weather History & Observations

Time (MDT) Temp. Windchill Dew Point Humidity Pressure Visibility Wind Dir Wind Speed Gust Speed Precip Events Conditions
12:53 AM 46.9 °F - 15.1 °F 28% 30.26 in 10.0 mi NNE 10.4 mph - N/A   Clear
1:53 AM 44.1 °F 39.5 °F 16.0 °F 32% 30.26 in 10.0 mi North 8.1 mph - N/A   Clear
2:53 AM 43.0 °F 38.8 °F 17.1 °F 35% 30.25 in 10.0 mi NE 6.9 mph - N/A   Clear
3:53 AM 42.1 °F 39.2 °F 18.0 °F 38% 30.25 in 10.0 mi NNE 4.6 mph - N/A   Clear
4:53 AM 39.9 °F 37.8 °F 17.1 °F 40% 30.26 in 10.0 mi NNE 3.5 mph - N/A   Clear
5:53 AM 39.0 °F 35.7 °F 17.1 °F 41% 30.26 in 10.0 mi NE 4.6 mph - N/A   Clear
6:53 AM 43.0 °F 41.3 °F 19.0 °F 38% 30.25 in 10.0 mi East 3.5 mph - N/A   Clear
7:53 AM 50.0 °F - 19.9 °F 31% 30.24 in 10.0 mi Calm Calm - N/A   Clear
8:53 AM 53.1 °F - 21.0 °F 29% 30.24 in 10.0 mi SW 3.5 mph - N/A   Clear
9:53 AM 57.9 °F - 21.9 °F 25% 30.24 in 10.0 mi Variable 4.6 mph - N/A   Clear
10:53 AM 63.0 °F - 21.9 °F 21% 30.20 in - SSW 6.9 mph - N/A   Clear
11:53 AM 66.9 °F - 24.1 °F 20% 30.17 in 10.0 mi North - - N/A   Clear
1:53 PM 75.9 °F - 15.1 °F 10% 30.12 in 10.0 mi WNW 13.8 mph - N/A   Clear
2:53 PM 77.0 °F - 12.9 °F 9% 30.10 in 10.0 mi NNW 9.2 mph 23.0 mph N/A   Clear
3:53 PM 77.0 °F - 14.0 °F 9% 30.08 in 10.0 mi NW 12.7 mph 19.6 mph N/A   Clear
4:53 PM 78.1 °F - 16.0 °F 10% 30.08 in 10.0 mi NW 13.8 mph 20.7 mph N/A   Clear
5:53 PM 75.0 °F - 16.0 °F 11% 30.09 in 10.0 mi NW 17.3 mph - N/A   Clear
6:53 PM 73.0 °F - 17.1 °F 12% 30.08 in 10.0 mi NW 13.8 mph 24.2 mph N/A   Clear
7:53 PM 71.1 °F - 15.1 °F 12% 30.06 in 10.0 mi WNW 12.7 mph - N/A   Clear
8:53 PM 66.9 °F - 15.1 °F 14% 30.09 in 10.0 mi NW 8.1 mph - N/A   Clear
9:53 PM 59.0 °F - 16.0 °F 19% 30.12 in 10.0 mi North 10.4 mph - N/A   Clear
10:53 PM 60.1 °F - 21.0 °F 22% 30.08 in 10.0 mi North 10.4 mph - N/A   Clear
11:53 PM 60.1 °F - 19.9 °F 21% 30.05 in 10.0 mi Variable 4.6 mph - N/A   Clear